[[{"header":{"parameterUnit":"m.s-1","parameterCategory":1,"la1":30.2991,"la2":30.254,"lo1":-89.0895,"lo2":-89.0444,"dy":0.0017,"dx":0.0017,"nx":28,"ny":28,"refTime":"2025-04-19T21:00:00:Z","depth":0,"parameterNumber":2,"parameterNumberName":"U-component_of_WINDS"},"data":[0,0,0,0,0,0,0,0,0,0,0,0,0,0,0,0,0,0,0,0,0,0,0,0,0,0,0,0,0,0,0,0,0,0,0,0,0,0,0,0,0,0,0,0,0,0,0,0,0,0,0,0,0,0,0,0,0,0,-2.8508,-2.8509,0,-2.8591,-2.8592,-2.8593,-2.8612,-2.8611,-2.861,-2.861,-2.8695,-2.8697,-2.87,0,0,0,0,0,0,0,0,0,0,0,0,0,-2.8368,-2.837,-2.8508,-2.8509,-2.851,-2.8591,-2.8592,-2.8593,-2.8612,-2.8611,-2.861,-2.861,-2.8694,-2.8697,-2.87,0,0,0,0,0,0,0,0,0,0,0,0,0,-2.8437,-2.8371,-2.8508,-2.8529,-2.8532,-2.859,-2.8592,-2.8593,-2.8612,-2.8611,-2.861,-2.8609,-2.8693,-2.8697,-2.8701,-2.8744,0,0,-2.8713,-2.8715,0,0,0,0,0,0,0,0,-2.8433,-2.8443,-2.8525,-2.8528,-2.8531,-2.859,-2.8573,-2.8644,-2.8612,-2.8582,-2.861,-2.8609,-2.866,-2.8667,-2.8685,-2.8748,-2.8751,-2.8714,-2.8716,-2.8718,-2.8719,0,0,0,0,0,0,0,-2.8429,-2.8439,-2.8541,-2.8526,-2.853,-2.8535,-2.8544,-2.8587,-2.8625,-2.8584,-2.8586,-2.8595,-2.8662,-2.8681,-2.8687,-2.8753,-2.8714,-2.8717,-2.872,-2.8722,-2.8855,-2.8856,0,0,0,0,0,0,-2.842,-2.8435,-2.8538,-2.8543,-2.8479,-2.8538,-2.8548,-2.8572,-2.8624,-2.8632,-2.8596,-2.8596,-2.8674,-2.8682,-2.869,-2.8743,-2.8718,-2.8722,-2.8724,-2.8854,-2.8856,-2.8857,0,0,0,0,0,0,-2.8417,-2.8429,-2.8535,-2.849,-2.8504,-2.8542,-2.8568,-2.8574,-2.8593,-2.8633,-2.864,-2.8608,-2.8673,-2.8684,-2.873,-2.8746,-2.8724,-2.8728,-2.8853,-2.8855,-2.8856,-2.885,0,0,0,0,0,0,-2.8413,-2.8428,-2.8444,-2.849,-2.8506,-2.8574,-2.8569,-2.8576,-2.86,-2.86,-2.8646,-2.8653,-2.8674,-2.8724,-2.8734,-2.8752,-2.8731,-2.8852,-2.8854,-2.8856,-2.8849,-2.8852,-2.8854,0,0,0,0,0,-2.8408,-2.8439,-2.8445,-2.8457,-2.8527,-2.8575,-2.8584,-2.8607,-2.8601,-2.8618,-2.8644,-2.8652,-2.8743,-2.8728,-2.874,-2.8759,-2.8851,-2.8853,-2.8856,-2.8848,-2.8851,-2.8854,0,0,0,0,0,0,-2.8395,-2.8446,-2.8452,-2.85,-2.8533,-2.8578,-2.86,-2.8609,-2.8644,-2.8643,-2.867,-2.8681,-2.8725,-2.8747,-2.873,-2.8804,-2.8797,-2.8802,-2.8787,-2.879,-2.8792,-2.8785,-2.8735,0,0,0,0,0,-2.8397,-2.8431,-2.8474,-2.8512,-2.8528,-2.8561,-2.8583,-2.8598,-2.8633,-2.8647,-2.8676,-2.871,-2.8747,-2.877,-2.8806,-2.8853,-2.8863,-2.8872,-2.8875,-2.8876,-2.8879,-2.8906,-2.891,-2.8865,-2.8865,-2.8865,0,0,-2.8403,-2.8435,-2.8455,-2.851,-2.8537,-2.8572,-2.8573,-2.8609,-2.8635,-2.8652,-2.8697,-2.8721,-2.876,-2.8807,-2.8829,-2.8827,-2.8895,-2.8879,-2.888,-2.8883,-2.8909,-2.8913,-2.8917,-2.8866,-2.8866,-2.8866,0,0,-2.843,-2.8459,-2.8493,-2.852,-2.8562,-2.8583,-2.8592,-2.8636,-2.8652,-2.8698,-2.8711,-2.8743,-2.8805,-2.8833,-2.8855,-2.8895,-2.8902,-2.8906,-2.8916,-2.8942,-2.8945,-2.8948,-2.8962,-2.8966,-2.8909,-2.8909,-2.8909,0,-2.8432,-2.8485,-2.8509,-2.8545,-2.8569,-2.8587,-2.8622,-2.8647,-2.8698,-2.8714,-2.8711,-2.879,-2.8818,-2.8871,-2.8881,-2.8899,-2.8909,-2.89,-2.8943,-2.8946,-2.895,-2.8962,-2.8967,-2.8909,-2.8909,-2.8909,-2.8909,0,-2.8484,-2.8521,-2.8543,-2.8592,-2.8619,-2.8654,-2.8684,-2.8708,-2.8721,-2.8744,-2.879,-2.8825,-2.8868,-2.8883,-2.8896,-2.8938,-2.8935,-2.8937,-2.893,-2.8953,-2.8966,-2.8971,-2.8909,-2.8909,-2.8909,-2.8909,0,0,-2.8504,-2.8567,-2.8574,-2.8597,-2.8644,-2.8673,-2.8709,-2.8751,-2.8771,-2.8806,-2.8837,-2.889,-2.8892,-2.8918,-2.8935,-2.8957,-2.8985,-2.8956,-2.8958,-2.8959,-2.9033,-2.903,-2.9036,-2.8992,-2.8993,-2.8994,-2.903,0,-2.8537,-2.8602,-2.8625,-2.8679,-2.8712,-2.873,-2.8762,-2.8795,-2.8817,-2.8849,-2.8874,-2.8911,-2.8911,-2.8927,-2.895,-2.8977,-2.9,-2.8975,-2.902,-2.9021,-2.9008,-2.9042,-2.9039,-2.9072,-2.9035,-2.9036,-2.9036,0,-2.8583,-2.8618,-2.8675,-2.8718,-2.8733,-2.8761,-2.8802,-2.8832,-2.887,-2.8885,-2.8913,-2.8929,-2.8968,-2.896,-2.9014,-2.8997,-2.9017,-2.9033,-2.9035,-2.9039,-2.9029,-2.9046,-2.9083,-2.9087,-2.9044,-2.9044,-2.9043,0,-2.859,-2.8652,-2.8694,-2.8713,-2.8764,-2.8784,-2.8806,-2.8843,-2.8867,-2.8903,-2.8919,-2.8959,-2.8981,-2.9012,-2.9038,-2.903,-2.9089,-2.9084,-2.9102,-2.9101,-2.9112,-2.9111,-2.9151,-2.9128,-2.9128,-2.9128,-2.9128,0,-2.8623,-2.8657,-2.8698,-2.8723,-2.8762,-2.8789,-2.8827,-2.8851,-2.8883,-2.8914,-2.8933,-2.8961,-2.8995,-2.9028,-2.9049,-2.909,-2.91,-2.9113,-2.9117,-2.911,-2.9108,-2.9122,-2.912,-2.9129,-2.9129,-2.9129,-2.9128,0,-2.8637,-2.8666,-2.8712,-2.8758,-2.877,-2.8797,-2.8836,-2.8861,-2.8885,-2.8924,-2.8934,-2.8971,-2.9011,-2.9041,-2.9092,-2.9107,-2.915,-2.9156,-2.9137,-2.9139,-2.9155,-2.9153,-2.9205,-2.9213,-2.9185,-2.9186,-2.9186,0,-2.8655,-2.8681,-2.873,-2.8751,-2.8774,-2.8809,-2.8833,-2.8862,-2.8887,-2.8932,-2.8952,-2.8994,-2.9028,-2.9091,-2.9122,-2.9162,-2.9168,-2.9184,-2.9174,-2.9166,-2.9167,-2.9164,-2.9167,-2.9184,-2.9185,-2.9185,-2.9185,0,-2.8684,-2.8697,-2.8732,-2.8771,-2.88,-2.8833,-2.8866,-2.8883,-2.8917,-2.8944,-2.8985,-2.9012,-2.9065,-2.9105,-2.9148,-2.9172,-2.9184,-2.9188,-2.9194,-2.9186,-2.9173,-2.9179,-2.9139,-2.9186,-2.9186,-2.9186,-2.9186,-2.9186,-2.87,-2.8724,-2.8762,-2.88,-2.8827,-2.8858,-2.8884,-2.8911,-2.8946,-2.899,-2.9006,-2.9048,-2.9086,-2.9145,-2.9169,-2.9203,-2.9202,-2.9212,-2.9214,-2.9215,-2.9214,-2.9169,-2.9211,-2.9211,-2.9211,-2.9211,-2.9211,0,-2.8729,-2.8754,-2.8789,-2.8834,-2.8864,-2.8874,-2.8911,-2.8935,-2.8972,-2.9006,-2.9039,-2.9086,-2.9126,-2.9161,-2.9202,-2.9223,-2.9229,-2.9232,-2.923,-2.9236,-2.9212,-2.9202,-2.9226,-2.9226,-2.9226,-2.9226,-2.9226,-2.9226,-2.8747,-2.8788,-2.8806,-2.8861,-2.8887,-2.8927,-2.8948,-2.8976,-2.9004,-2.9055,-2.9088,-2.9111,-2.9146,-2.919,-2.9227,-2.9236,-2.925,-2.9251,-2.9262,-2.9239,-2.9237,-2.9235,-2.9226,-2.9255,-2.9255,-2.9282,-2.9283,-2.9283]},{"header":{"parameterUnit":"m.s-1","parameterCategory":1,"la1":30.2991,"la2":30.254,"lo1":-89.0895,"lo2":-89.0444,"dy":0.0017,"dx":0.0017,"nx":28,"ny":28,"refTime":"2025-04-19T21:00:00:Z","depth":0,"parameterNumber":3,"parameterNumberName":"V-component_of_WINDS"},"data":[0,0,0,0,0,0,0,0,0,0,0,0,0,0,0,0,0,0,0,0,0,0,0,0,0,0,0,0,0,0,0,0,0,0,0,0,0,0,0,0,0,0,0,0,0,0,0,0,0,0,0,0,0,0,0,0,0,0,2.9277,2.9278,0,2.9363,2.9364,2.9365,2.9369,2.9368,2.9367,2.9366,2.9451,2.9454,2.9458,0,0,0,0,0,0,0,0,0,0,0,0,0,2.9116,2.9119,2.9277,2.9278,2.9279,2.9363,2.9364,2.9365,2.9369,2.9368,2.9367,2.9365,2.945,2.9454,2.9458,0,0,0,0,0,0,0,0,0,0,0,0,0,2.9192,2.912,2.9277,2.9291,2.9293,2.9363,2.9364,2.9365,2.9369,2.9368,2.9366,2.9365,2.9449,2.9454,2.9458,2.9518,0,0,2.9473,2.9475,0,0,0,0,0,0,0,0,2.9188,2.9198,2.9288,2.929,2.9293,2.9354,2.9339,2.9417,2.937,2.934,2.9366,2.9364,2.942,2.9427,2.9446,2.9522,2.9526,2.9473,2.9476,2.9478,2.948,0,0,0,0,0,0,0,2.9183,2.9195,2.9311,2.9289,2.9292,2.9293,2.9303,2.9353,2.9387,2.9343,2.9343,2.9354,2.9421,2.9442,2.9448,2.9527,2.9473,2.9478,2.9481,2.9482,2.9659,2.9661,0,0,0,0,0,0,2.9175,2.919,2.9308,2.9314,2.9236,2.9298,2.9308,2.9336,2.9387,2.9393,2.9355,2.9353,2.9434,2.9443,2.9451,2.9527,2.9478,2.9483,2.9486,2.9657,2.966,2.9662,0,0,0,0,0,0,2.9171,2.9185,2.9305,2.9252,2.9267,2.9302,2.9333,2.9338,2.9359,2.9396,2.9402,2.937,2.9433,2.9445,2.9502,2.953,2.9485,2.9489,2.9655,2.9658,2.9661,2.9677,0,0,0,0,0,0,2.9167,2.9184,2.9207,2.9253,2.927,2.9355,2.9335,2.9341,2.9368,2.9367,2.9412,2.9418,2.9433,2.9495,2.9507,2.9535,2.9493,2.9653,2.9657,2.966,2.9674,2.9679,2.9684,0,0,0,0,0,2.9161,2.9207,2.9208,2.9222,2.93,2.9356,2.9366,2.9384,2.937,2.9393,2.9418,2.9416,2.9525,2.9501,2.9515,2.9545,2.9651,2.9656,2.9659,2.9671,2.9678,2.9684,0,0,0,0,0,0,2.9162,2.9213,2.9215,2.9277,2.9313,2.9357,2.9387,2.939,2.9429,2.9427,2.9446,2.9456,2.9514,2.9535,2.9508,2.9607,2.9586,2.9593,2.9591,2.9598,2.9603,2.9597,2.9497,0,0,0,0,0,2.917,2.9212,2.9254,2.9305,2.9323,2.9352,2.9377,2.9388,2.9425,2.9439,2.9467,2.9503,2.9545,2.9572,2.9613,2.9677,2.9688,2.9704,2.971,2.9714,2.972,2.9757,2.9766,2.9675,2.9675,2.9675,0,0,2.9186,2.9219,2.9244,2.9306,2.9335,2.9378,2.9364,2.941,2.9442,2.9446,2.9503,2.9525,2.9566,2.9628,2.9656,2.9647,2.9747,2.9719,2.9722,2.9726,2.9762,2.9771,2.9779,2.9678,2.9677,2.9677,0,0,2.9238,2.9266,2.9313,2.9343,2.9387,2.9406,2.9418,2.9462,2.9477,2.9535,2.954,2.9578,2.965,2.968,2.9704,2.977,2.9771,2.9783,2.9811,2.9847,2.9854,2.9861,2.9886,2.9894,2.9789,2.9789,2.9789,0,2.9252,2.9317,2.9336,2.9383,2.9411,2.9418,2.9466,2.9493,2.9548,2.9567,2.9556,2.9649,2.9676,2.9746,2.9763,2.9782,2.9796,2.9778,2.9852,2.9858,2.9865,2.9889,2.9898,2.979,2.979,2.979,2.9789,0,2.9334,2.9379,2.9412,2.9466,2.9498,2.9544,2.9571,2.96,2.9609,2.963,2.969,2.9724,2.9773,2.979,2.9798,2.9862,2.9855,2.9848,2.9828,2.9874,2.9898,2.9907,2.9792,2.9791,2.9791,2.9791,0,0,2.9387,2.9454,2.9465,2.9491,2.9542,2.9577,2.9625,2.9674,2.97,2.9738,2.9779,2.9841,2.9836,2.9864,2.9875,2.9907,2.996,2.9896,2.9898,2.9908,3.0034,3.004,3.0051,2.9961,2.9962,2.9964,3.0032,0,2.9445,2.9532,2.9551,2.9625,2.9669,2.9677,2.9719,2.9755,2.9776,2.9816,2.9839,2.9883,2.9872,2.9889,2.9921,2.9946,2.9985,2.9942,3.0,3.0002,2.999,3.0063,3.0068,3.0131,3.004,3.0042,3.0043,0,2.9525,2.9567,2.9646,2.9693,2.9712,2.9749,2.9797,2.9835,2.9876,2.9889,2.9922,2.9931,2.9982,2.9959,3.003,3.0,3.0025,3.0042,3.0045,3.0051,3.0026,3.0072,3.0151,3.0161,3.0057,3.0056,3.0055,0,2.9558,2.9634,2.9692,2.9713,2.9769,2.9796,2.982,2.986,2.9889,2.9931,2.995,2.9997,3.0022,3.0059,3.008,3.0062,3.015,3.0129,3.0164,3.0163,3.0182,3.0181,3.0267,3.0196,3.0196,3.0196,3.0196,0,2.9622,2.967,2.9708,2.9743,2.9798,2.9821,2.9874,2.9899,2.9934,2.9975,2.9985,3.0023,3.0049,3.009,3.0107,3.0165,3.0176,3.0189,3.0193,3.0189,3.0187,3.0206,3.0202,3.0199,3.0198,3.0197,3.0197,0,2.9668,2.9695,2.9759,2.9808,2.9821,2.986,2.9901,2.9936,2.9958,3.001,3.0024,3.0058,3.0108,3.0134,3.0195,3.0207,3.0272,3.0273,3.0259,3.0261,3.0294,3.0291,3.0396,3.0412,3.033,3.033,3.0331,0,2.9707,2.9745,2.9798,2.9827,2.9853,2.9898,2.9929,2.9952,2.9984,3.0035,3.0064,3.0115,3.0157,3.0237,3.0268,3.0316,3.0319,3.0352,3.0326,3.0321,3.0321,3.0319,3.0324,3.0357,3.0358,3.0358,3.0359,0,2.9775,2.9787,2.9831,2.9881,2.9917,2.9957,2.9996,3.0019,3.0049,3.0084,3.0136,3.0169,3.0234,3.0285,3.0335,3.036,3.0365,3.0367,3.0378,3.0374,3.0365,3.0372,3.0273,3.0364,3.0364,3.0363,3.0363,3.0363,2.982,2.9855,2.9899,2.9948,2.9981,3.0018,3.0054,3.0082,3.0126,3.0181,3.0192,3.0248,3.029,3.0359,3.0386,3.043,3.0423,3.0438,3.0442,3.0446,3.0448,3.0358,3.0439,3.0439,3.0439,3.0439,3.0439,0,2.9889,2.9918,2.9964,3.002,3.0059,3.0061,3.0105,3.0138,3.0187,3.0226,3.0268,3.0329,3.0379,3.0415,3.0466,3.0495,3.0498,3.0507,3.0506,3.0512,3.0451,3.0437,3.0504,3.0504,3.0504,3.0504,3.0504,3.0504,2.993,2.999,3.0008,3.0085,3.0113,3.0169,3.0195,3.0229,3.0261,3.0329,3.0372,3.0395,3.0433,3.0487,3.0534,3.0543,3.0562,3.0571,3.0581,3.0523,3.0516,3.051,3.0497,3.0575,3.0575,3.0639,3.0639,3.064]}]]